Location: Brahman Valley
(40.6513°N, 111.8855°W)
Time: 08:50:53
(UTC+00:00)

Tiros 1 despin weight - Pass Details

Date: 13 May 2021
Orbit: 594 x 641 km, 48.2° (Epoch: 22 June)

Event Time Altitude Azimuth Distance (km) Brightness Sun altitude
Rises 02:50:08 0° 215° (SW) 2,902 ? -3.4°
Reaches altitude 10° 02:52:33 10° 207° (SSW) 2,005 ? -3.8°
Maximum altitude 02:56:48 37° 140° (SE) 985 ? -4.5°
Drops below altitude 10° 03:01:07 10° 73° (ENE) 2,029 ? -5.2°
Sets 03:03:35 0° 65° (ENE) 2,943 ? -5.6°
